Location: Eymir
(36.7333°N, 29.7833°E)
Time: 18:17:14
(UTC+00:00)

CUTE 1.7 + AOD 2 - Visible Passes

Search period start: 17 May 2026 00:00
Search period end: 27 May 2026 00:00
Orbit: 532 x 546 km, 97.8° (Epoch: 17 May)

Date Brightness Start Highest point End Pass type
(mag) Time Alt. Az. Time Alt. Az. Time Alt. Az.
20 May ? 02:18:31 10° NNE 02:22:19 56° E 02:26:07 10° S visible
21 May ? 02:10:51 10° NNE 02:14:33 44° E 02:18:14 10° S visible
22 May ? 02:03:13 10° NNE 02:06:46 34° E 02:10:18 10° SSE visible
23 May ? 01:55:38 10° NE 01:58:58 27° E 02:02:17 10° SSE visible
24 May ? 01:48:06 10° NE 01:51:09 22° E 01:54:11 10° SSE visible
25 May ? 01:40:39 10° NE 01:43:19 18° E 01:45:58 10° SE visible
26 May ? 01:33:22 10° ENE 01:35:28 14° E 01:37:34 10° SE visible
